Portada
METAR-TAF:

METAR-TAF

Aeropuertos :

Tafraoui, Argelia

Base aérea

latitud: 35-32-33N, longitud: 000-31-56W, altitud: 112 m

Observación

El informe se hizo hace 40 minutos, a las 16:00 UTC
Viento 18 kt del oeste
Temperatura 26°C
Humedad 58%
Presión 1014 hPa
Visibilidad 10 km o más
Escasas nubes a una altura de 3000 ft

METAR: DAOL 281600Z 27018KT 9999 FEW030 26/17 Q1014

Hora: 17:40 (16:40 UTC)


TAF: falta

Observaciones y pronósticos meteorológicos de más de 4000 aeropuertos (mensajes METAR y TAF).

Los puntos amarillos y rojos representan las estaciones disponibles.

Ponga el ratón en el punto deseado para ver el nombre de la estación.

Haga clic para ver las observaciones y los pronósticos meteorológicos.

Para cambiar el mapa : haga clic en los botones verdes con una cruz de color negro para hacer un zoom, en el botón verde con un guión para alejar o en las flechas verdes para mapas adyacentes.


METAR-TAF: